TimeCEST,TemperatureF,Dew PointF,Humidity,Sea Level PressureIn,VisibilityMPH,Wind Direction,Wind SpeedMPH,Gust SpeedMPH,PrecipitationIn,Events,Conditions,WindDirDegrees,DateUTC
12:25 AM,59.0,53.6,82,30.04,6.2,North,4.6,-,N/A,,Unknown,350,2012-05-27 22:25:00
12:55 AM,59.0,53.6,82,30.04,6.2,NNW,3.5,-,N/A,,Unknown,330,2012-05-27 22:55:00
1:25 AM,57.2,55.4,94,30.04,6.2,Variable,2.3,-,N/A,,Unknown,0,2012-05-27 23:25:00
1:55 AM,57.2,55.4,94,30.04,3.7,NNW,3.5,-,N/A,,Unknown,330,2012-05-27 23:55:00
2:00 AM,57,56,94,30.05,3,NNW,4.5,,,,Mist,340,2012-05-28 00:00:00
2:25 AM,57.2,55.4,94,30.04,3.1,North,3.5,-,N/A,,Mist,350,2012-05-28 00:25:00
2:55 AM,55.4,55.4,100,30.04,-9999.0,NW,3.5,-,N/A,,Mist,320,2012-05-28 00:55:00
3:25 AM,55.4,55.4,100,30.04,1.2,NNW,3.5,-,N/A,,Mist,340,2012-05-28 01:25:00
3:55 AM,55.4,55.4,100,30.01,1.6,North,2.3,-,N/A,,Mist,360,2012-05-28 01:55:00
4:25 AM,55.4,55.4,100,30.01,0.4,Variable,2.3,-,N/A,Fog,Fog,0,2012-05-28 02:25:00
4:55 AM,53.6,53.6,100,30.01,0.2,West,1.2,-,N/A,Fog,Fog,270,2012-05-28 02:55:00
5:00 AM,53,53,100,30.03,0,West,2.2,,,Fog,Fog,280,2012-05-28 03:00:00
5:25 AM,53.6,53.6,100,30.01,0.1,West,2.3,-,N/A,Fog,Fog,260,2012-05-28 03:25:00
5:55 AM,51.8,51.8,100,30.01,0.7,NW,1.2,-,N/A,,Mist,310,2012-05-28 03:55:00
6:25 AM,53.6,53.6,100,30.01,0.7,North,2.3,-,N/A,,Mist,350,2012-05-28 04:25:00
6:55 AM,55.4,55.4,100,30.01,-9999.0,WNW,3.5,-,N/A,,Mist,300,2012-05-28 04:55:00
7:25 AM,59.0,57.2,94,30.01,3.7,Variable,2.3,-,N/A,,Unknown,0,2012-05-28 05:25:00
7:55 AM,60.8,57.2,88,30.01,5.6,North,3.5,-,N/A,,Unknown,10,2012-05-28 05:55:00
8:00 AM,62,57,80,30.03,6,NNW,4.5,,,,Partly Cloudy,340,2012-05-28 06:00:00
8:25 AM,62.6,59.0,88,30.01,6.2,NNW,4.6,-,N/A,,Unknown,330,2012-05-28 06:25:00
8:55 AM,64.4,59.0,83,30.01,6.2,NNW,3.5,-,N/A,,Unknown,340,2012-05-28 06:55:00
9:25 AM,66.2,57.2,73,30.01,6.2,NNW,4.6,-,N/A,,Unknown,340,2012-05-28 07:25:00
9:55 AM,68.0,59.0,73,30.01,6.2,NNW,4.6,-,N/A,,Unknown,330,2012-05-28 07:55:00
10:25 AM,69.8,59.0,68,30.01,6.2,North,5.8,-,N/A,,Unknown,350,2012-05-28 08:25:00
10:55 AM,71.6,57.2,60,30.01,6.2,North,8.1,-,N/A,,Unknown,350,2012-05-28 08:55:00
11:00 AM,70,57,54,30.03,17,North,8.9,,,,,350,2012-05-28 09:00:00
11:25 AM,69.8,57.2,64,30.01,6.2,NW,6.9,-,N/A,,Unknown,320,2012-05-28 09:25:00
11:55 AM,69.8,57.2,64,30.01,6.2,NNW,8.1,-,N/A,,Unknown,330,2012-05-28 09:55:00
12:25 PM,68.0,57.2,68,30.01,6.2,WNW,8.1,-,N/A,,Unknown,300,2012-05-28 10:25:00
12:55 PM,68.0,59.0,73,30.01,6.2,West,10.4,-,N/A,,Unknown,270,2012-05-28 10:55:00
1:25 PM,68.0,59.0,73,30.01,6.2,WNW,8.1,-,N/A,,Unknown,290,2012-05-28 11:25:00
1:55 PM,68.0,59.0,73,30.01,6.2,NW,8.1,-,N/A,,Unknown,310,2012-05-28 11:55:00
2:00 PM,68,55,54,30.04,12,NW,8.9,,,,Scattered Clouds,320,2012-05-28 12:00:00
2:25 PM,69.8,50.0,49,30.01,6.2,NNW,9.2,-,N/A,,Unknown,330,2012-05-28 12:25:00
2:55 PM,71.6,50.0,46,30.01,6.2,NNW,9.2,-,N/A,,Unknown,330,2012-05-28 12:55:00
3:25 PM,71.6,51.8,50,30.01,6.2,NW,8.1,-,N/A,,Unknown,320,2012-05-28 13:25:00
3:55 PM,69.8,53.6,56,30.01,6.2,NNW,9.2,-,N/A,,Unknown,330,2012-05-28 13:55:00
4:25 PM,69.8,51.8,53,30.01,6.2,NW,8.1,-,N/A,,Unknown,320,2012-05-28 14:25:00
4:55 PM,69.8,53.6,56,30.01,6.2,WNW,9.2,-,N/A,,Unknown,300,2012-05-28 14:55:00
5:00 PM,69,54,48,30.03,15,NW,6.7,,,,,310,2012-05-28 15:00:00
5:25 PM,68.0,51.8,56,30.01,6.2,WNW,8.1,-,N/A,,Unknown,290,2012-05-28 15:25:00
5:55 PM,68.0,51.8,56,30.01,6.2,WNW,8.1,-,N/A,,Unknown,290,2012-05-28 15:55:00
6:25 PM,68.0,51.8,56,30.01,6.2,WNW,8.1,-,N/A,,Unknown,290,2012-05-28 16:25:00
6:55 PM,66.2,50.0,56,30.01,6.2,West,8.1,-,N/A,,Unknown,280,2012-05-28 16:55:00
7:25 PM,66.2,48.2,52,30.01,6.2,WNW,5.8,-,N/A,,Unknown,300,2012-05-28 17:25:00
7:55 PM,66.2,48.2,52,30.01,6.2,WNW,5.8,-,N/A,,Unknown,300,2012-05-28 17:55:00
8:00 PM,65,49,47,30.02,19,West,6.7,,,,,280,2012-05-28 18:00:00
8:25 PM,62.6,53.6,72,30.01,6.2,West,5.8,-,N/A,,Unknown,280,2012-05-28 18:25:00
8:55 PM,59.0,51.8,77,30.01,6.2,West,5.8,-,N/A,,Unknown,270,2012-05-28 18:55:00
9:25 PM,55.4,51.8,88,30.01,6.2,West,8.1,-,N/A,,Unknown,270,2012-05-28 19:25:00
9:55 PM,53.6,51.8,94,30.01,6.2,West,5.8,-,N/A,,Unknown,280,2012-05-28 19:55:00
10:25 PM,51.8,51.8,100,30.01,3.7,West,4.6,-,N/A,,Unknown,270,2012-05-28 20:25:00
10:55 PM,51.8,50.0,94,30.01,3.1,West,5.8,-,N/A,,Mist,260,2012-05-28 20:55:00
11:00 PM,51,51,98,30.03,3,West,6.7,,,,Mist,270,2012-05-28 21:00:00
11:25 PM,51.8,50.0,94,30.01,1.6,West,8.1,-,N/A,,Mostly Cloudy,270,2012-05-28 21:25:00
11:55 PM,51.8,51.8,100,30.01,-9999.0,West,6.9,-,N/A,,Mostly Cloudy,280,2012-05-28 21:55:00